{"data":{"norad_id":65909,"intl_designator":"2025-224AD","name":"STARLINK-35387","alt_names":[],"object_type":"PAYLOAD","status":"ACTIVE","operator":null,"country":"US","launch_date":"2025-10-07","launch_site_code":"AFETR","launch_vehicle":null,"mission":null,"orbit_class":"UNKNOWN","rcs_meters":null,"size_class":null,"mass_kg":null,"dimensions":null,"purposes":["comms"],"wikipedia_slug":null,"has_3d_model":false,"image_url":null,"decayed_at":null,"tle_current":{"epoch":"2026-09-19T12:08:13.661088Z","epoch_age_seconds":189002,"freshness":"STALE","line1":"1 65909U 25224AD  26262.50571367  .00014058  00000+0  42641-3 0  9993","line2":"2 65909  53.1587 190.0050 0000336 133.4313 226.6718 15.34399345 54518","mean_motion":15.34399345,"eccentricity":3.36e-5,"inclination_deg":53.1587,"raan_deg":190.005,"arg_perigee_deg":133.4313,"mean_anomaly_deg":226.6718,"bstar":0.00042641,"rev_number":5451,"period_min":93.847798142797,"perigee_km":462.47533470835,"apogee_km":462.93503930332,"semimajor_km":6840.8421870058,"source":"CELESTRAK","updated_at":"2026-09-21T09:00:35.761879Z"}}}